Date,TemperatureHighF,TemperatureAvgF,TemperatureLowF,DewpointHighF,DewpointAvgF,DewpointLowF,HumidityHigh,HumidityAvg,HumidityLow,PressureMaxIn,PressureMinIn,WindSpeedMaxMPH,WindSpeedAvgMPH,GustSpeedMaxMPH,PrecipitationSumIn
2013-1-1,26,18,10,14,10,2,78,69,56,29.85,29.73,30,13,30,0.00
2013-1-2,28,16,1,13,6,-6,79,67,50,29.96,29.83,19,6,19,0.00
2013-1-3,28,18,3,9,3,-5,71,51,42,29.96,29.85,32,13,32,0.00
2013-1-4,34,22,16,12,5,0,55,47,39,29.87,29.74,22,10,22,0.14
2013-1-5,32,21,7,11,5,-5,62,50,39,29.93,29.80,25,10,25,0.00
2013-1-6,43,33,19,13,9,5,57,37,26,29.88,29.62,44,16,44,0.00
2013-1-7,41,32,24,15,9,5,51,39,28,29.70,29.49,39,17,39,0.00
2013-1-8,43,34,30,20,18,15,63,51,38,29.85,29.49,37,16,37,0.00
2013-1-9,50,41,32,23,20,15,64,44,29,29.89,29.59,46,23,46,0.00
2013-1-10,52,43,27,16,13,10,58,31,23,29.60,29.21,45,16,45,0.00
2013-1-11,28,12,3,21,5,-3,89,74,58,29.60,29.20,21,4,21,0.00
2013-1-12,10,3,-7,2,-4,-13,77,73,66,29.70,29.59,16,3,16,0.00
2013-1-13,12,1,-7,1,-6,-13,79,72,59,29.76,29.69,15,2,15,0.00
2013-1-14,10,3,-7,-2,-7,-13,76,64,56,29.79,29.69,33,11,33,0.00
2013-1-15,24,17,7,12,5,-5,65,60,57,29.84,29.70,40,20,40,0.00
2013-1-16,36,27,20,16,12,9,63,55,43,30.01,29.83,45,18,45,0.00
2013-1-17,41,31,22,15,11,8,55,44,33,30.06,29.86,35,12,35,0.00
2013-1-18,47,37,30,13,10,6,41,33,23,29.87,29.72,38,19,38,0.00
2013-1-19,46,36,29,12,10,8,42,34,22,29.91,29.76,35,13,35,0.08
2013-1-20,35,27,16,18,12,7,74,53,39,30.01,29.82,29,4,29,0.00
2013-1-21,50,35,18,15,12,9,70,40,21,29.89,29.73,32,13,32,0.00
2013-1-22,51,40,30,12,9,6,38,28,19,29.80,29.73,34,17,34,0.00
2013-1-23,53,44,40,11,8,4,28,23,16,29.82,29.73,38,16,38,0.00
2013-1-24,53,42,31,29,21,9,76,45,28,29.83,29.67,40,14,40,0.00
2013-1-25,51,40,28,26,24,20,74,55,34,29.84,29.71,38,15,38,0.00
2013-1-26,52,42,33,30,26,20,66,53,39,29.72,29.48,28,11,28,0.00
2013-1-27,52,43,33,32,28,25,73,56,41,29.49,29.41,31,12,31,0.00
2013-1-28,33,26,14,26,21,10,88,82,72,29.51,29.43,16,3,16,0.03
2013-1-29,29,16,4,13,8,-2,85,71,51,29.72,29.44,20,7,20,0.00
2013-1-30,33,21,1,21,12,-4,83,68,55,29.67,29.52,22,8,22,0.00
2013-1-31,42,27,16,26,19,12,85,71,48,29.81,29.63,18,5,18,0.04
2013-2-1,41,32,20,28,22,14,82,67,54,29.89,29.70,24,8,24,0.00
2013-2-2,49,32,20,20,17,12,80,57,27,29.96,29.88,38,9,38,0.00
2013-2-3,46,35,26,19,16,14,65,48,31,29.89,29.63,35,11,35,0.00
2013-2-4,50,36,24,19,15,12,62,44,27,29.68,29.56,34,9,34,0.00
2013-2-5,50,38,24,24,19,13,67,48,32,29.70,29.54,30,10,30,0.00
2013-2-6,46,37,25,22,19,15,78,49,33,29.79,29.52,22,5,22,0.00
2013-2-7,44,31,15,18,12,7,84,51,27,29.81,29.65,33,9,33,0.00
2013-2-8,50,36,27,24,15,7,77,44,27,29.67,29.49,18,5,18,0.00
2013-2-9,28,26,24,24,21,18,88,83,72,29.55,29.40,17,5,17,0.00
2013-2-10,28,19,2,21,13,-3,88,79,65,29.74,29.45,19,5,19,0.00
2013-2-11,24,12,0,11,4,-5,83,70,55,29.74,29.65,23,8,23,0.00
2013-2-12,26,21,14,15,10,4,68,62,57,29.75,29.69,36,18,36,0.00
2013-2-13,41,30,23,26,20,14,83,67,52,29.73,29.62,36,13,36,0.00
2013-2-14,28,23,20,24,17,12,86,76,62,29.94,29.72,26,5,26,0.00
2013-2-15,35,25,12,24,17,9,86,71,52,29.98,29.86,18,4,18,0.02
2013-2-16,43,34,26,23,19,15,64,54,42,29.87,29.59,39,17,39,0.00
2013-2-17,46,34,25,25,18,13,83,54,33,29.61,29.39,37,13,37,0.00
2013-2-18,34,24,10,21,14,4,83,67,38,29.73,29.60,19,4,19,0.00
2013-2-19,44,24,7,20,10,3,86,60,27,29.71,29.45,26,4,26,0.00
2013-2-20,42,26,15,20,16,11,83,67,41,29.49,29.39,18,6,18,0.00
2013-2-21,29,22,15,20,16,10,88,78,67,29.59,29.49,15,5,15,0.00
2013-2-22,36,23,12,20,10,6,86,61,31,29.63,29.48,32,10,32,0.00
2013-2-23,39,29,23,24,17,10,88,63,46,29.51,29.36,41,18,41,0.00
2013-2-24,31,22,11,21,17,7,87,79,61,29.78,29.51,27,7,27,0.00
2013-2-25,31,23,9,15,11,4,83,61,50,29.75,29.52,39,18,39,0.00
2013-2-26,32,25,15,23,19,11,86,78,54,29.86,29.54,30,6,30,0.02
2013-2-27,28,19,9,16,11,5,85,70,57,29.92,29.85,30,10,30,0.00
2013-2-28,34,24,16,18,12,7,73,59,43,29.94,29.85,32,10,32,0.00
2013-3-1,46,33,16,27,20,8,75,61,42,29.97,29.92,31,7,31,0.00
2013-3-2,51,41,31,30,26,24,76,56,41,29.97,29.63,37,13,37,0.00
2013-3-3,53,42,26,31,26,18,77,54,41,29.63,29.38,37,19,37,0.00
2013-3-4,31,23,6,20,9,0,84,58,30,29.93,29.55,38,8,38,0.02
2013-3-5,44,25,2,14,8,-3,83,53,26,29.92,29.71,26,7,26,0.00
2013-3-6,56,41,17,23,17,7,67,41,22,29.72,29.51,35,12,35,0.00
2013-3-7,55,42,30,27,21,16,67,45,29,29.71,29.54,22,6,22,0.00
2013-3-8,56,37,20,28,23,13,83,61,33,29.67,29.49,15,4,15,0.00
2013-3-9,39,32,18,27,19,9,83,62,38,29.84,29.52,32,7,32,0.00
2013-3-10,50,33,12,22,15,8,85,53,27,29.89,29.70,21,4,21,0.00
2013-3-11,40,33,23,31,23,16,85,68,45,29.88,29.66,20,5,20,0.10
2013-3-12,47,30,12,28,20,8,87,70,45,29.93,29.80,17,3,17,0.04
2013-3-13,62,46,29,32,27,23,79,51,27,29.90,29.81,29,8,29,0.00
2013-3-14,68,51,36,30,27,24,66,42,20,29.93,29.76,29,6,29,0.00
2013-3-15,68,55,38,28,23,17,54,30,16,29.76,29.60,22,7,22,0.00
2013-3-16,57,40,28,34,26,20,86,59,32,29.76,29.50,15,3,15,0.06
2013-3-17,49,35,20,31,19,-1,89,60,16,29.57,29.27,45,12,45,0.22
2013-3-18,43,28,15,15,8,4,71,45,21,29.64,29.52,27,4,27,0.00
2013-3-19,44,28,17,23,16,10,85,66,28,29.94,29.63,20,4,20,0.03
2013-3-20,54,33,9,30,18,5,84,58,20,29.93,29.44,43,10,43,0.00
2013-3-21,44,34,19,33,27,15,87,74,57,29.59,29.30,33,8,33,0.02
2013-3-22,32,25,18,23,18,13,89,78,61,29.69,29.53,17,3,17,0.08
2013-3-23,29,20,13,14,11,7,83,69,50,29.83,29.69,19,3,19,0.00
2013-3-24,26,17,10,13,9,5,85,71,46,29.88,29.77,15,3,15,0.00
2013-3-25,38,22,4,16,8,0,84,59,31,29.90,29.75,23,5,23,0.00
2013-3-26,49,36,24,22,15,10,65,44,27,29.75,29.65,23,5,23,0.00
2013-3-27,57,39,20,32,24,14,83,57,31,29.76,29.68,21,2,21,0.00
2013-3-28,62,45,28,30,24,19,78,50,24,29.82,29.72,13,1,13,0.00
2013-3-29,67,48,28,32,26,19,77,47,18,29.82,29.73,18,2,18,0.00
2013-3-30,53,39,32,42,31,24,91,74,39,29.88,29.82,29,2,29,0.26
2013-3-31,64,45,30,28,25,19,80,49,19,29.85,29.72,22,5,22,0.00
2013-4-1,55,40,22,29,23,16,85,55,31,29.83,29.73,18,4,18,0.00
2013-4-2,59,41,20,29,20,12,80,46,22,29.81,29.73,17,2,17,0.00
2013-4-3,69,46,24,34,26,17,79,51,20,29.84,29.73,22,3,22,0.00
2013-4-4,71,50,27,40,28,23,90,51,18,29.84,29.62,26,4,26,0.00
2013-4-5,70,55,36,34,28,20,73,38,24,29.62,29.45,36,11,36,0.02
2013-4-6,62,48,33,30,25,18,73,44,20,29.65,29.55,28,8,28,0.00
2013-4-7,61,49,39,31,27,23,60,43,25,29.57,29.37,46,14,46,0.00
2013-4-8,47,28,13,32,20,9,85,72,44,29.76,29.37,29,9,29,0.00
2013-4-9,16,12,9,8,6,4,83,78,68,29.92,29.75,23,7,23,0.00
2013-4-10,29,18,8,17,10,3,83,71,58,29.88,29.56,16,2,16,0.11
2013-4-11,52,36,18,33,27,12,85,70,48,29.62,29.50,15,3,15,0.00
2013-4-12,51,36,28,36,29,24,91,76,49,29.73,29.59,14,2,14,0.24
2013-4-13,53,40,24,34,28,20,89,66,42,29.59,29.18,46,12,46,0.00
2013-4-14,42,32,23,28,20,12,88,66,30,29.56,29.29,31,8,31,0.08
2013-4-15,30,24,20,20,16,13,82,72,59,29.72,29.52,18,7,18,0.00
2013-4-16,24,21,19,18,16,13,87,81,68,29.82,29.64,25,12,25,0.00
2013-4-17,26,20,16,18,15,10,88,80,67,29.87,29.76,21,7,21,0.00
2013-4-18,38,23,6,20,13,1,85,68,44,29.87,29.78,14,3,14,0.02
2013-4-19,52,38,25,31,24,15,71,58,42,29.79,29.58,27,9,27,0.00
2013-4-20,60,46,37,37,32,30,79,62,37,29.69,29.57,23,6,24,0.07
2013-4-21,58,42,30,37,31,24,90,68,28,29.76,29.65,26,8,26,0.02
2013-4-22,30,24,17,27,19,12,87,79,68,29.99,29.70,25,7,25,0.00
2013-4-23,41,26,10,23,13,4,86,62,25,29.97,29.78,23,4,23,0.00
2013-4-24,48,35,24,22,16,12,70,49,27,29.88,29.76,25,4,25,0.02
2013-4-25,66,48,29,20,15,7,62,31,11,29.76,29.60,27,7,27,0.01
2013-4-26,72,50,26,27,20,15,68,37,16,29.89,29.74,19,2,19,0.00
2013-4-27,76,56,36,28,22,17,56,31,12,29.88,29.68,26,4,26,0.00
2013-4-28,75,58,42,35,29,23,73,36,19,29.71,29.60,26,5,26,0.00
2013-4-29,71,54,32,35,27,21,86,44,18,29.65,29.34,46,14,46,0.39
2013-4-30,43,37,29,32,24,20,89,62,42,29.81,29.49,21,8,21,0.00
2013-5-1,38,30,24,28,22,17,88,75,59,30.21,29.81,20,6,20,0.00
2013-5-2,53,38,22,27,19,13,85,54,23,30.27,30.02,18,3,18,0.00
2013-5-3,71,48,21,28,19,12,71,38,16,30.03,29.76,18,2,18,0.00
2013-5-4,61,48,37,26,23,21,59,40,24,29.90,29.80,22,7,22,0.00
2013-5-5,63,48,31,27,23,18,63,40,23,29.90,29.77,24,7,24,0.00
2013-5-6,73,54,33,34,28,23,70,41,20,29.80,29.66,16,2,16,0.00
2013-5-7,74,55,33,41,34,23,73,48,28,29.70,29.62,22,6,22,0.00
2013-5-8,73,57,42,40,33,27,73,46,19,29.84,29.70,24,5,24,0.00
2013-5-9,79,54,35,42,36,28,83,56,22,29.90,29.80,29,4,29,0.00
2013-5-10,74,56,38,42,34,25,86,52,19,30.06,29.88,23,5,23,0.00
2013-5-11,75,58,37,42,32,21,78,44,15,30.09,29.88,20,3,20,0.00
2013-5-12,83,66,46,38,33,28,54,32,18,29.91,29.79,19,3,19,0.17
2013-5-13,92,72,53,40,34,29,46,29,14,29.86,29.69,19,4,19,0.00
2013-5-14,92,72,55,42,31,23,52,25,10,29.74,29.60,29,4,29,0.00
2013-5-15,88,62,44,48,39,31,76,47,16,29.75,29.60,23,2,23,0.00
2013-5-16,82,64,49,50,43,34,87,53,21,29.69,29.55,25,5,25,0.06
2013-5-17,82,63,48,54,43,23,91,57,12,29.67,29.51,32,5,32,0.04
2013-5-18,74,57,41,48,40,32,91,58,25,29.66,29.56,35,5,35,0.12
2013-5-19,56,48,46,47,44,41,92,87,71,29.68,29.60,23,5,23,1.24
2013-5-20,55,47,43,45,39,32,92,76,45,29.81,29.67,26,8,26,0.27
2013-5-21,72,53,41,39,36,31,87,58,27,29.82,29.65,19,5,19,0.00
2013-5-22,66,52,37,44,39,34,90,65,34,29.72,29.63,38,12,38,0.04
2013-5-23,74,58,44,48,44,40,88,61,36,29.71,29.50,42,17,42,0.08
2013-5-24,76,65,51,42,30,22,57,31,14,29.74,29.52,30,9,30,0.00
2013-5-25,86,64,41,44,31,21,71,35,11,29.73,29.60,24,4,24,0.00
2013-5-26,81,63,46,50,43,25,76,49,30,29.74,29.55,21,4,21,0.00
2013-5-27,80,62,46,54,39,21,92,53,15,29.64,29.51,40,6,40,0.00
2013-5-28,74,58,42,42,38,33,73,51,29,29.61,29.42,25,4,25,0.00
2013-5-29,50,47,45,43,41,39,88,80,69,29.49,29.45,4,0,4,0.00
2013-5-30,57,51,47,39,36,34,72,57,45,29.59,29.43,25,8,25,0.00
2013-5-31,60,49,42,39,35,32,78,59,37,29.87,29.56,30,8,30,0.02
2013-6-1,70,56,44,38,36,33,80,52,26,29.98,29.85,16,4,16,0.00
2013-6-2,85,64,37,44,35,30,85,42,16,29.85,29.48,22,4,22,0.02
2013-6-3,80,64,49,49,31,18,71,33,11,29.77,29.41,28,6,28,0.00
2013-6-4,49,42,35,37,34,30,85,75,63,29.81,29.76,12,2,12,0.18
2013-6-22,80,63,50,54,49,45,83,63,38,29.77,29.57,25,4,25,0.21
2013-6-23,84,63,43,50,39,26,92,54,13,29.78,29.58,14,3,14,0.00
2013-6-24,95,79,48,48,34,24,84,24,10,29.58,29.48,29,8,29,0.00
2013-6-25,85,73,60,44,39,32,45,30,19,29.67,29.55,25,11,27,0.00
2013-7-3,95,77,51,55,47,37,68,39,18,29.80,29.71,18,3,31,0.00
2013-7-4,98,74,56,56,50,41,85,48,20,29.78,29.66,18,2,18,0.06
2013-7-5,90,71,56,61,55,49,92,62,27,29.77,29.60,18,5,23,0.06
2013-7-6,93,72,57,58,52,34,90,58,15,29.78,29.66,21,6,28,0.10
2013-7-7,94,74,58,60,51,35,92,53,15,29.81,29.71,22,3,22,0.35
2013-7-8,94,73,56,55,49,40,82,48,22,29.84,29.73,19,4,19,0.10
2013-7-9,96,75,53,54,48,39,78,43,16,29.93,29.84,18,3,18,0.00
2013-7-10,93,75,61,52,45,32,71,41,13,29.94,29.76,14,2,14,0.00
2013-7-11,102,81,56,59,46,33,79,38,10,29.80,29.58,22,2,25,0.00
2013-7-12,92,77,64,55,51,43,64,42,26,29.77,29.63,22,4,22,0.00
2013-7-13,91,75,60,57,50,44,69,45,22,29.89,29.76,21,5,21,0.02
2013-7-14,85,72,60,58,53,46,76,53,34,29.99,29.85,21,6,21,0.04
2013-7-15,97,75,58,62,54,43,92,55,21,29.91,29.73,21,5,22,0.00
2013-7-16,91,75,57,56,49,40,76,46,19,29.93,29.79,20,6,22,0.00
2013-7-17,95,75,52,58,51,44,89,50,22,29.95,29.82,12,2,14,0.00
2013-7-18,97,80,66,56,50,46,53,37,24,29.91,29.80,20,3,20,0.23
2013-7-19,75,65,58,60,51,47,88,62,44,29.98,29.88,14,3,15,0.34
2013-7-20,95,83,62,57,50,43,71,34,19,29.81,29.65,9,1,18,0.00
2013-7-21,98,76,53,57,47,31,85,43,13,29.72,29.61,19,3,19,0.00
2013-7-22,97,79,56,55,41,24,59,31,10,29.78,29.63,14,2,17,0.00
2013-7-23,94,75,53,54,46,35,80,42,16,29.88,29.73,14,2,14,0.00
2013-7-24,86,69,56,57,52,47,75,56,36,29.91,29.85,16,3,18,0.00
2013-7-29,83,69,55,54,49,44,90,55,27,29.92,29.77,30,6,30,0.28
2013-7-30,90,65,54,54,50,39,89,65,22,30.00,29.87,28,5,35,0.00
2013-7-31,89,73,52,56,51,47,86,48,27,30.05,29.86,22,2,22,0.00
2013-8-1,91,73,56,58,51,46,80,49,25,29.89,29.65,26,5,31,0.11
2013-8-2,91,78,62,57,45,25,76,37,11,29.78,29.65,24,6,24,0.00
2013-8-3,86,71,55,61,56,48,91,63,36,29.89,29.75,26,5,26,0.00
2013-8-4,95,73,55,61,52,38,88,55,17,29.89,29.73,20,1,20,0.00
2013-8-5,93,76,60,62,50,34,87,49,15,29.86,29.68,12,2,15,0.00
2013-8-6,90,72,52,54,46,40,68,42,22,29.84,29.73,16,2,18,0.00
2013-8-7,90,71,53,56,48,41,77,49,21,29.85,29.69,18,2,20,0.00
2013-8-8,85,66,51,54,49,43,81,57,26,29.88,29.75,28,6,28,0.14
2013-8-9,81,64,52,55,50,46,87,64,32,29.95,29.85,17,4,19,0.04
2013-8-10,88,66,51,56,49,40,92,58,21,29.94,29.82,11,2,11,0.00
2013-8-11,92,71,55,50,45,40,69,44,19,29.92,29.83,20,4,20,0.00
2013-8-12,92,70,48,53,46,38,87,48,21,29.92,29.83,17,2,22,0.00
2013-8-13,87,64,52,55,48,42,76,59,29,29.96,29.87,14,1,17,0.06
2013-8-14,86,69,50,51,46,40,82,50,24,29.94,29.80,20,3,21,0.00
2013-8-15,90,71,50,52,45,39,85,47,20,29.89,29.83,14,2,14,0.00
2013-8-16,97,73,46,50,40,30,77,37,12,29.91,29.80,12,1,14,0.00
2013-8-17,98,77,55,52,40,30,59,32,10,29.85,29.74,21,3,21,0.00
2013-8-18,96,75,53,50,44,38,66,38,15,29.84,29.76,19,5,22,0.00
2013-8-19,97,75,55,50,42,32,70,37,12,29.86,29.72,22,3,28,0.00
2013-8-20,94,75,58,52,40,31,58,31,18,29.87,29.75,37,4,37,0.02
2013-8-21,85,74,60,54,50,44,69,45,26,29.88,29.80,19,3,22,0.00
2013-8-22,90,72,57,59,53,48,82,54,27,29.93,29.76,20,2,20,0.39
2013-8-23,93,75,63,57,53,49,74,49,25,29.83,29.65,40,4,42,0.02
2013-8-24,86,72,62,53,48,41,64,45,22,29.80,29.73,26,7,34,0.00
2013-8-25,85,73,59,50,46,42,57,40,28,29.89,29.80,22,7,58,0.00
2013-8-26,89,75,64,53,49,46,61,42,25,29.88,29.81,30,10,30,0.00
2013-8-27,90,76,64,56,51,48,63,44,25,29.88,29.78,22,7,22,0.00
2013-8-28,93,76,60,54,48,42,67,41,19,29.86,29.78,22,6,25,0.00
2013-8-29,92,77,58,54,47,40,59,37,10,29.95,29.83,17,1,28,0.00
2013-8-30,95,75,57,53,47,37,74,41,18,29.92,29.78,14,2,16,0.00
2013-8-31,84,71,60,48,42,38,47,36,23,29.91,29.80,19,3,19,0.00
2013-9-1,87,70,48,53,44,36,68,42,22,29.91,29.79,19,3,19,0.00
2013-9-2,94,71,53,60,51,43,80,53,24,29.85,29.73,20,2,20,0.08
2013-9-3,89,74,59,58,53,47,84,53,26,29.86,29.79,19,3,20,0.00
2013-9-4,94,76,57,56,50,47,74,44,23,29.94,29.84,10,1,14,0.00
2013-9-5,94,77,56,57,49,43,73,40,20,29.93,29.80,19,3,23,0.00
2013-9-6,91,79,67,52,47,43,47,33,20,29.92,29.79,22,3,22,0.00
2013-9-7,68,64,56,47,45,43,64,51,45,29.87,29.82,10,1,10,0.00
2013-9-8,87,73,59,58,53,46,74,51,26,29.81,29.67,16,3,22,0.00
2013-9-9,76,65,57,55,51,43,83,62,34,29.81,29.69,61,3,61,0.00
2013-9-10,71,62,55,53,48,44,84,62,42,29.92,29.81,16,2,16,0.00
2013-9-11,65,60,56,56,50,45,86,68,56,30.01,29.92,18,4,18,0.02
2013-9-12,66,59,55,56,52,49,90,78,63,30.04,29.89,21,5,21,0.04
2013-9-13,68,59,53,60,54,49,92,85,68,29.89,29.67,8,1,11,0.24
2013-9-14,78,62,48,56,52,46,94,75,41,29.83,29.67,17,3,22,0.03
2013-9-15,65,58,53,55,52,49,90,80,65,29.94,29.83,25,10,28,0.00
2013-9-16,80,62,46,56,48,41,94,65,29,29.88,29.70,22,4,22,0.00
2013-9-17,84,70,57,51,46,41,65,45,25,29.73,29.54,38,10,38,0.00
2013-9-18,82,64,45,52,41,26,83,47,18,29.75,29.53,29,7,33,0.02
2013-9-19,67,50,32,42,33,28,88,56,27,29.91,29.75,14,1,16,0.00
2013-9-20,75,54,29,39,29,24,86,47,16,29.91,29.70,18,3,22,0.00
2013-9-21,83,66,41,37,28,21,59,28,12,29.70,29.52,26,8,38,0.00
2013-9-22,80,65,55,48,40,30,69,42,25,29.52,29.41,24,11,27,0.00
2013-9-23,69,56,42,46,38,25,86,54,25,29.75,29.41,22,4,22,0.00
2013-9-24,77,60,39,36,31,25,60,36,18,29.80,29.55,25,9,30,0.00
2013-9-25,79,62,42,40,31,25,86,36,17,29.55,29.29,33,8,33,0.08
2013-9-26,61,49,40,42,38,36,88,70,47,29.57,29.50,12,4,12,0.02
2013-10-1,73,63,46,38,35,32,66,37,24,29.70,29.63,22,6,31,0.00
2013-10-2,59,49,39,37,33,30,76,54,38,29.83,29.62,12,3,16,0.00
2013-10-3,46,41,31,42,36,29,93,85,57,29.72,29.57,19,4,19,0.68
2013-10-4,32,29,26,29,27,24,93,91,87,29.99,29.70,0,0,0,0.04
2013-10-5,36,30,19,28,25,16,92,82,69,29.98,29.90,28,4,31,0.14
2013-10-6,49,43,33,35,32,26,76,65,54,29.98,29.87,25,10,26,0.00
2013-10-7,67,56,45,37,33,31,64,44,31,29.87,29.62,41,15,41,0.00
2013-10-8,70,57,45,36,33,29,67,42,25,29.65,29.52,28,12,31,0.00
2013-10-9,53,44,35,38,33,28,80,66,54,29.76,29.65,22,6,23,0.00
2013-10-10,62,44,32,44,36,27,89,73,51,29.65,29.38,8,0,8,0.10
2013-10-11,50,42,31,41,34,26,90,75,47,29.80,29.39,20,4,22,0.12
2013-10-12,56,39,24,37,30,21,91,73,41,29.84,29.77,9,0,9,0.00
2013-10-13,59,42,30,46,37,27,92,82,54,29.81,29.68,19,1,19,0.11
2013-10-14,41,35,30,39,32,26,94,88,80,29.98,29.66,24,5,24,0.12
2013-10-15,38,32,28,28,26,23,87,79,65,30.02,29.85,12,1,12,0.00
2013-10-16,51,38,30,31,26,24,81,64,38,29.85,29.72,27,8,32,0.00
2013-10-17,43,35,29,32,28,24,86,77,61,29.85,29.77,7,0,7,0.00
2013-10-18,45,34,26,29,25,21,89,70,41,29.91,29.78,16,2,23,0.00
2013-10-19,59,44,34,31,26,23,66,51,29,29.78,29.65,22,4,26,0.00
2013-10-20,49,38,28,39,32,24,91,79,49,29.82,29.65,11,1,11,0.18
2013-10-21,56,43,28,35,30,25,90,64,36,29.84,29.79,11,2,12,0.00
2013-10-22,64,49,35,37,32,27,76,55,33,29.90,29.80,15,3,15,0.00
2013-10-23,63,44,28,38,32,23,88,65,34,29.93,29.84,8,0,9,0.00
2013-10-24,59,41,26,40,33,23,92,74,45,29.96,29.87,4,0,5,0.00
2013-10-25,68,46,28,38,32,25,90,62,25,29.98,29.85,8,1,10,0.00
2013-10-26,64,46,29,39,30,25,89,59,27,30.01,29.79,12,2,61,0.00
2013-10-27,66,51,37,32,26,22,72,41,20,29.79,29.55,15,4,16,0.00
2013-10-28,40,30,26,32,26,23,91,87,73,29.77,29.65,17,8,17,0.00
2013-10-29,46,31,26,33,27,24,91,84,61,29.71,29.59,10,2,10,0.00
2013-10-30,48,36,25,31,27,23,92,71,45,29.59,29.52,13,3,15,0.00
2013-10-31,55,39,27,31,26,22,84,63,37,29.65,29.52,16,5,17,0.00
2013-11-1,49,37,24,28,22,15,77,57,34,29.86,29.65,12,3,12,0.00
2013-11-2,60,42,20,30,22,14,83,51,27,29.86,29.45,42,13,44,0.04
2013-11-3,50,42,27,31,26,21,85,56,34,29.64,29.39,30,9,37,0.00
2013-11-4,37,29,20,23,16,14,86,61,39,29.70,29.63,23,5,29,0.02
2013-11-5,38,29,19,23,14,3,87,58,29,29.80,29.70,20,4,20,0.00
2013-11-6,50,35,19,21,14,10,72,44,27,30.00,29.78,31,9,32,0.00
2013-11-7,50,41,17,29,24,10,79,53,40,29.99,29.58,23,8,25,0.00
2013-11-8,56,45,28,28,21,16,65,41,23,29.73,29.51,36,10,38,0.00
2013-11-9,52,36,23,28,22,16,74,58,37,29.90,29.73,13,2,14,0.00
2013-11-10,64,46,21,30,25,15,84,48,27,29.90,29.82,22,6,25,0.00
2013-11-11,46,36,24,30,25,18,87,67,42,30.19,29.85,17,4,19,0.00
2013-11-12,60,38,16,34,22,13,90,58,29,30.20,29.97,25,5,28,0.00
2013-11-13,56,48,35,36,24,19,84,40,27,29.98,29.75,22,7,24,0.00
2013-11-14,52,39,26,35,26,19,91,61,35,29.83,29.46,22,6,27,0.00
2013-11-15,52,41,32,27,22,17,64,48,34,29.45,29.22,30,11,30,0.06
2013-11-16,41,35,29,23,19,14,62,52,45,29.24,29.13,44,20,57,0.19
2013-11-17,43,33,20,20,13,6,66,45,23,29.74,29.24,25,9,32,0.00
2013-11-18,56,44,29,25,21,15,61,42,25,29.78,29.65,36,15,36,0.42
2013-11-19,55,47,41,30,26,21,64,45,34,29.65,29.44,44,19,44,0.00
2013-11-20,54,34,10,29,21,4,82,62,34,29.89,29.47,33,15,34,0.03
2013-11-21,17,9,3,8,2,-2,80,75,63,30.14,29.89,12,2,14,0.00
2013-11-22,30,11,-2,12,2,-8,78,67,46,30.20,30.09,15,4,16,0.00
2013-11-23,34,10,-6,15,1,-12,82,69,45,30.21,29.91,2,0,2,0.00
2013-11-24,40,23,1,22,13,-4,83,66,47,29.91,29.71,25,4,25,0.00
2013-11-25,43,30,19,27,20,14,83,68,48,30.01,29.82,8,0,8,0.06
2013-11-26,46,33,18,25,21,14,84,63,41,30.03,29.86,22,6,24,0.00
2013-11-27,52,40,22,24,21,14,73,48,33,29.86,29.74,35,13,39,0.00
2013-11-28,42,29,15,27,19,11,87,68,47,29.85,29.76,12,1,16,0.00
2013-11-29,50,42,35,24,22,18,57,46,36,29.84,29.75,30,14,37,0.00
2013-11-30,49,39,33,25,23,21,65,53,37,29.87,29.79,27,12,32,0.00
2013-12-1,46,40,34,28,26,22,64,57,49,29.81,29.53,35,17,38,0.00
2013-12-2,52,44,35,29,27,25,67,51,38,29.53,29.28,39,22,43,0.00
2013-12-3,35,13,2,28,7,-4,86,77,70,29.59,29.28,61,9,61,0.00
2013-12-4,6,-3,-16,-3,-10,-23,77,71,60,29.73,29.55,19,5,20,0.00
2013-12-5,4,-7,-18,-5,-14,-23,77,72,63,29.77,29.66,11,2,13,0.00
2013-12-6,4,-10,-19,-4,-17,-25,79,72,60,29.83,29.76,5,0,5,0.00
2013-12-7,-2,-8,-16,-10,-15,-22,77,73,64,29.81,29.49,10,1,12,0.00
2013-12-8,12,2,-8,1,-7,-14,76,68,58,29.70,29.46,20,5,22,0.00
2013-12-9,15,6,-7,4,-4,-13,76,63,51,29.75,29.62,51,21,51,0.04
2013-12-10,26,18,6,14,8,1,81,64,55,29.91,29.64,56,18,56,0.02
2013-12-11,31,21,0,15,9,-5,82,60,47,29.91,29.85,37,15,37,0.00
2013-12-12,42,33,27,18,14,12,54,46,38,29.89,29.63,36,17,37,0.00
2013-12-13,42,30,21,22,15,11,84,56,38,29.86,29.61,23,4,26,0.02
2013-12-14,36,30,21,21,18,13,85,62,49,29.91,29.82,39,14,39,0.00
2013-12-15,43,36,30,22,20,17,63,51,43,29.84,29.75,38,19,40,0.00
2013-12-16,50,40,34,21,18,15,51,42,30,29.92,29.79,29,11,29,0.00
2013-12-17,49,41,33,19,17,15,49,39,29,29.95,29.72,39,13,41,0.00
2013-12-18,52,44,39,21,18,15,45,35,28,29.72,29.42,21,11,21,0.20
2013-12-19,40,17,0,27,9,-5,87,71,43,29.67,29.37,14,3,17,0.04
2013-12-20,23,15,0,12,7,-5,81,71,61,29.59,29.31,22,7,22,0.00
2013-12-21,29,21,13,19,13,9,82,71,58,29.63,29.28,22,5,22,0.00
2013-12-22,30,18,12,16,11,8,84,75,54,29.86,29.62,15,3,16,0.00
2013-12-23,38,28,12,29,20,6,84,72,59,29.86,29.70,25,9,29,0.00
2013-12-24,38,29,19,29,22,11,89,76,68,29.95,29.62,37,10,50,0.00
2013-12-25,30,24,15,16,12,6,72,60,47,30.02,29.85,38,13,42,0.15
2013-12-26,38,33,29,20,16,11,56,50,43,29.93,29.84,32,16,32,0.00
2013-12-27,43,38,33,24,21,18,56,50,45,29.93,29.69,33,17,34,0.00
2013-12-28,39,26,0,25,14,-5,80,65,46,29.96,29.61,30,8,37,0.00
2013-12-29,28,17,-9,17,8,-14,84,70,60,29.93,29.60,33,10,37,0.00
2013-12-30,34,29,23,20,17,12,66,60,52,29.88,29.69,29,14,32,0.00
2013-12-31,40,35,30,28,23,19,89,62,53,29.72,29.61,31,16,35,0.00
2014-1-1,32,24,13,27,20,9,90,83,72,29.93,29.69,0,0,0,0.02
2014-1-2,36,29,14,22,18,10,84,64,55,29.89,29.64,34,16,36,0.00